Location: Caltech
(34.1382°N, 118.1253°W)
Time: 10:19:12
(UTC-08:00)

PCSat - Visible Passes

Search period start: 27 November 2014 00:00
Search period end: 07 December 2014 00:00
Orbit: 785 x 796 km, 67.1° (Epoch: 26 November)

Date Brightness Start Highest point End Pass type
(mag) Time Alt. Az. Time Alt. Az. Time Alt. Az.
27 Nov 10.7 04:08:06 34° NNE 04:09:28 40° ENE 04:14:31 10° SE visible
27 Nov 10.8 05:48:54 12° WNW 05:52:35 23° WSW 05:56:44 10° SSW visible
27 Nov 9.4 18:41:54 10° SSW 18:47:18 79° ESE 18:47:45 72° ENE visible
28 Nov 11.3 03:39:15 28° ENE 03:39:15 28° ENE 03:43:24 10° ESE visible
28 Nov 10.3 05:20:03 25° WNW 05:22:06 33° WSW 05:26:52 10° S visible
28 Nov 9.6 18:11:29 10° S 18:16:44 55° ESE 18:18:51 34° NE visible
28 Nov 11.9 19:56:43 10° W 19:59:38 18° WNW 19:59:38 18° WNW visible
29 Nov 12.1 03:10:27 16° E 03:10:27 16° E 03:12:03 10° ESE visible
29 Nov 9.8 04:51:15 46° W 04:51:35 47° WSW 04:56:44 10° S visible
29 Nov 10.1 17:41:15 10° S 17:46:12 38° ESE 17:49:52 17° NE visible
29 Nov 11.4 19:25:15 10° WSW 19:29:40 25° NW 19:30:39 24° NW visible
30 Nov 10.1 04:22:29 47° S 04:22:29 47° S 04:26:23 10° SSE visible
30 Nov 10.6 17:11:15 10° SSE 17:15:43 27° ESE 17:20:11 10° NE visible
30 Nov 11.0 18:54:02 10° WSW 18:58:56 34° WNW 19:01:34 22° N visible
01 Dec 11.3 03:53:45 25° SSE 03:53:45 25° SSE 03:55:51 10° SSE visible
01 Dec 10.4 18:23:02 10° SW 18:28:13 48° WNW 18:32:25 16° N visible
02 Dec 12.3 03:25:00 11° SE 03:25:00 11° SE 03:25:09 10° SE visible
02 Dec 9.9 17:52:12 10° SW 17:57:34 68° WNW 18:02:59 10° NNE visible
03 Dec 9.6 17:21:33 10° SSW 17:26:57 86° ESE 17:32:24 10° NNE visible
03 Dec 12.2 19:08:43 10° WNW 19:11:03 13° NW 19:13:24 10° NNW visible
04 Dec 12.0 18:36:40 10° W 18:40:11 17° NW 18:43:44 10° N visible
05 Dec 11.6 18:05:06 10° WSW 18:09:22 23° NW 18:13:40 10° N visible
06 Dec 11.2 17:33:49 10° WSW 17:38:36 32° WNW 17:43:26 10° N visible
